Indianapolis, IN

12:00 AM EDT on March 27, 2017 (GMT -0400)
Indianapolis International

Weather History for KIND - January, 2013

Change the Weather History Date:

Wednesday, January 30, 2013

  Actual Average Record
Temperature  
Mean Temperature 46 °F 29 °F  
Max Temperature 65 °F 36 °F 65 °F (2013)
Min Temperature 27 °F 21 °F -11 °F (1966)
Degree Days  
Heating Degree Days 19 36  
Month to date heating degree days 1040 1109  
Since 1 July heating degree days 3021 3185  
Cooling Degree Days 0 0  
Month to date cooling degree days 0 0  
Year to date cooling degree days 0 0  
Moisture  
Dew Point 45 °F    
Average Humidity 89    
Maximum Humidity 100    
Minimum Humidity 78    
Precipitation  
Precipitation 1.00 in 0.08 in 1.47 in (1982)
Month to date precipitation 5.52 2.58  
Year to date precipitation 5.52 2.58  
Snow  
Snow T in 0.30 in 3.40 in (1901)
Month to date snowfall 1.5 8.3  
Since 1 July snowfall 16.5 16.3  
Snow Depth 0.00 in    
Sea Level Pressure  
Sea Level Pressure 29.39 in    
Wind  
Wind Speed 18 mph (SW)    
Max Wind Speed 43 mph    
Max Gust Speed 48 mph    
Visibility 7 miles    
Events Rain , Snow , Thunderstorm    
T = Trace of Precipitation, MM = Missing Value Source: NWS Daily Summary

Daily Weather History Graph

Daily Weather History Graph

Search for Another Location

Airport or City:

Trip Planner

Search our weather history database for the weather conditions in past years. The results will help you decide how hot, cold, wet, or windy it might be!

Date:

Astronomy

Jan. 30, 2013 Rise Set
Actual Time 7:54 AM EST 6:02 PM EST
Civil Twilight 7:26 AM EST 6:31 PM EST
Nautical Twilight 6:53 AM EST 7:03 PM EST
Astronomical Twilight 6:21 AM EST 7:35 PM EST
Moon 10:00 PM EST (1/30) 9:22 AM EST (1/30)
Length of Visible Light 11h 05m
Length of Day
10h 08m
Waning Gibbous, 88% of the Moon is Illuminated
Jan 30
Waning Gibbous
Feb 3
Last Quarter
Feb 10
New
Feb 17
First Quarter
Feb 25
Full

Hourly Weather History & Observations

Time (EST) Temp. Windchill Dew Point Humidity Pressure Visibility Wind Dir Wind Speed Gust Speed Precip Events Conditions
12:09 AM 64.4 °F - 57.2 °F 77% 29.39 in 10.0 mi South 28.8 mph 36.8 mph N/A   Mostly Cloudy
12:24 AM 64.4 °F - 57.2 °F 77% 29.38 in 10.0 mi South 29.9 mph 43.7 mph 0.00 in Rain , Thunderstorm Light Thunderstorms and Rain
12:54 AM 63.0 °F - 59.0 °F 87% 29.35 in 10.0 mi South 24.2 mph 44.9 mph 0.04 in Rain , Thunderstorm Light Thunderstorms and Rain
12:59 AM 62.6 °F - 59.0 °F 88% 29.36 in 10.0 mi South 28.8 mph 35.7 mph N/A Rain Light Rain
1:25 AM 57.2 °F - 53.6 °F 88% 29.43 in 10.0 mi West 35.7 mph 47.2 mph 0.01 in Rain Light Rain
1:30 AM 53.6 °F - 51.8 °F 94% 29.40 in 10.0 mi NW 41.4 mph 47.2 mph 0.01 in Rain Light Rain
1:46 AM 53.6 °F - 51.8 °F 94% 29.46 in 2.5 mi WNW 13.8 mph 33.4 mph 0.07 in Rain Heavy Rain
1:48 AM 51.8 °F - 51.8 °F 100% 29.46 in 2.0 mi NW 17.3 mph 32.2 mph 0.12 in Rain Heavy Rain
1:50 AM 51.8 °F - 51.8 °F 100% 29.46 in 1.8 mi WNW 17.3 mph 28.8 mph 0.20 in Rain Heavy Rain
1:54 AM 52.0 °F - 51.1 °F 97% 29.46 in 1.5 mi NW 24.2 mph 28.8 mph 0.25 in Rain Heavy Rain
1:59 AM 51.8 °F - 51.8 °F 100% 29.46 in 2.0 mi NW 21.9 mph 28.8 mph N/A Rain Heavy Rain
2:07 AM 51.8 °F - 51.8 °F 100% 29.45 in 3.0 mi NW 16.1 mph 27.6 mph 0.08 in Rain Rain
2:54 AM 52.0 °F - 50.0 °F 93% 29.44 in 7.0 mi NNW 9.2 mph - 0.18 in Rain Rain
3:54 AM 51.1 °F - 50.0 °F 96% 29.43 in 7.0 mi Calm Calm - 0.17 in Rain Light Rain
4:54 AM 50.0 °F - 50.0 °F 100% 29.44 in 4.0 mi SW 4.6 mph - 0.16 in Rain Rain
5:37 AM 50.0 °F - 50.0 °F 100% 29.41 in 8.0 mi SE 8.1 mph - 0.09 in Rain Light Rain
5:54 AM 50.0 °F - 50.0 °F 100% 29.39 in 6.0 mi SE 6.9 mph - 0.11 in Rain Light Rain
6:23 AM 50.0 °F - 48.2 °F 94% 29.34 in 1.0 mi ESE 10.4 mph - 0.00 in Rain Light Rain
6:26 AM 50.0 °F - 48.2 °F 94% 29.35 in 1.0 mi SE 9.2 mph - 0.00 in Rain Light Rain
6:54 AM 50.0 °F - 50.0 °F 100% 29.38 in 1.0 mi SSE 12.7 mph - 0.00 in Rain Light Rain
7:54 AM 48.9 °F - 48.9 °F 100% 29.34 in 1.0 mi SE 13.8 mph - 0.00 in   Overcast
8:34 AM 50.0 °F - 48.2 °F 94% 29.35 in 7.0 mi SSE 13.8 mph - N/A   Overcast
8:44 AM 50.0 °F - 50.0 °F 100% 29.36 in 7.0 mi South 11.5 mph - N/A   Overcast
8:54 AM 50.0 °F - 50.0 °F 100% 29.37 in 7.0 mi South 11.5 mph - N/A   Overcast
9:54 AM 51.1 °F - 50.0 °F 96% 29.37 in 10.0 mi South 9.2 mph - N/A   Overcast
10:38 AM 51.8 °F - 50.0 °F 94% 29.34 in 10.0 mi SSW 18.4 mph - N/A   Overcast
10:54 AM 52.0 °F - 50.0 °F 93% 29.36 in 10.0 mi SSW 17.3 mph - N/A   Overcast
11:54 AM 52.0 °F - 48.9 °F 89% 29.33 in 10.0 mi SW 16.1 mph - N/A   Overcast
12:08 PM 51.8 °F - 48.2 °F 88% 29.34 in 10.0 mi SSW 15.0 mph - N/A   Mostly Cloudy
12:54 PM 53.1 °F - 48.9 °F 86% 29.32 in 10.0 mi SSW 17.3 mph - N/A   Overcast
1:50 PM 53.6 °F - 48.2 °F 82% 29.28 in 10.0 mi SSW 13.8 mph 27.6 mph 0.02 in   Overcast
1:54 PM 54.0 °F - 48.9 °F 83% 29.28 in 10.0 mi SSW 17.3 mph 24.2 mph 0.02 in   Overcast
2:54 PM 53.1 °F - 48.0 °F 83% 29.26 in 5.0 mi SSW 21.9 mph 27.6 mph 0.00 in Rain Light Rain
2:59 PM 51.8 °F - 48.2 °F 88% 29.29 in 2.0 mi West 26.5 mph 35.7 mph 0.01 in Rain Heavy Rain
3:11 PM 42.8 °F 33.1 °F 39.2 °F 87% 29.30 in 2.0 mi West 25.3 mph 35.7 mph 0.03 in Rain Heavy Rain
3:17 PM 42.8 °F 34.0 °F 39.2 °F 87% 29.31 in 7.0 mi West 20.7 mph 32.2 mph 0.04 in Rain Light Rain
3:54 PM 41.0 °F 30.7 °F 37.9 °F 89% 29.33 in 8.0 mi West 25.3 mph 31.1 mph 0.05 in Rain Light Rain
4:54 PM 37.9 °F 27.3 °F 35.1 °F 89% 29.36 in 10.0 mi WSW 21.9 mph 28.8 mph 0.01 in Rain Light Rain
5:39 PM 37.4 °F 25.9 °F 33.8 °F 87% 29.37 in 10.0 mi West 25.3 mph 35.7 mph 0.00 in Rain Light Rain
5:54 PM 37.0 °F 25.6 °F 33.1 °F 86% 29.39 in 10.0 mi West 24.2 mph 35.7 mph 0.00 in Rain Light Rain
6:24 PM 35.6 °F 23.0 °F 30.2 °F 81% 29.41 in 10.0 mi West 27.6 mph 34.5 mph 0.00 in Snow Light Snow
6:54 PM 34.0 °F 20.3 °F 30.0 °F 85% 29.43 in 9.0 mi West 29.9 mph 40.3 mph 0.00 in Snow Light Snow
7:54 PM 32.0 °F 18.1 °F 28.0 °F 85% 29.48 in 9.0 mi West 27.6 mph 39.1 mph 0.00 in Snow Light Snow
8:54 PM 30.0 °F 16.9 °F 26.1 °F 85% 29.51 in 9.0 mi West 21.9 mph 29.9 mph 0.00 in Snow Light Snow
9:54 PM 30.0 °F 14.5 °F 25.0 °F 82% 29.55 in 9.0 mi West 32.2 mph 40.3 mph 0.00 in Snow Light Snow
10:54 PM 28.0 °F 13.9 °F 24.1 °F 85% 29.60 in 9.0 mi West 23.0 mph 39.1 mph 0.00 in Snow Light Snow
11:54 PM 27.0 °F 11.0 °F 21.0 °F 78% 29.65 in 8.0 mi West 28.8 mph 41.4 mph 0.00 in Snow Light Snow